User: anonymous   Login
Location: Theydon Bois
(51.6750°N, 0.1050°E)
Time: 00:58:52
(UTC+00:00)
Language:

NOSS 2-1 (C) - Orbit

View from above orbital plane
View from above orbital plane
View from above satellite
View from above satellite

Ground track
Ground track

The orbit data is extracted from the following two-line orbital elements,

1 20691U 90050C   18048.74219296 0.00000050  00000-0  11694-4 0    06
2 20691  63.3400 277.1496 0806000  34.2051 325.7949 13.41780014    09
Epoch (UTC): 17 February 2018 17:48:45
Eccentricity: 0.0806000
inclination: 63.3400°
perigee height: 500 km
apogee height: 1705 km
right ascension of ascending node: 277.1496°
argument of perigee: 34.2051°
revolutions per day: 13.41780014
mean anomaly at epoch: 325.7949°
orbit number at epoch: 0

The dashed part of the orbit path shows where the satellite is in the earth's shadow,  

DLR